Location: Brussels
(24.6810°S, 26.6869°E)
Time: 05:37:30
(UTC+00:00)

Daily predictions for brighter satellites

Satellite Brightness Start Highest point End
(mag) Time Altitude Azimuth Time Altitude Azimuth Time Altitude Azimuth
Cosmos 2227 Rocket 4.1 00:19:12 22° SSW 00:19:12 22° SSW 00:21:30 10° S
CZ-4C R/B 3.8 00:29:39 42° NNE 00:31:58 50° ENE 00:40:03 10° SE
ADEOS II 3.7 00:48:11 24° SSW 00:48:11 24° SSW 00:50:19 10° SSW
Cosmos 2082 4.1 00:47:32 57° SSW 00:47:32 57° SSW 00:52:13 10° SSE
ADEOS Rocket 3.6 00:43:44 41° NNE 00:46:55 81° ESE 00:54:34 10° S
Cosmos 2263 Rocket 3.6 00:51:10 27° SW 00:51:10 27° SW 00:54:36 10° S
Cosmos 2219 4.0 00:52:40 41° SSW 00:52:40 41° SSW 00:56:58 10° S
Cosmos 1844 Rocket 3.7 00:52:38 34° NE 00:53:50 39° ENE 00:59:05 10° SE
SL-16 R/B 3.5 00:48:49 10° S 00:54:07 38° ESE 00:59:22 10° NE
ARIANE 6 FM1 Upper Stage 4.3 00:56:58 31° S 00:56:58 31° S 00:59:34 10° SSE
Cosmos 1809 Rocket 4.5 00:50:19 10° S 00:56:33 77° E 00:57:50 57° NNE
Cosmos 1420 Rocket 4.1 00:52:26 10° S 00:57:39 72° ESE 00:57:39 72° ESE
Cosmos 1048 Rocket 4.1 00:58:15 78° ESE 00:58:15 78° ESE 01:03:24 10° SSE
Delta 128 4.3 00:58:41 61° S 00:58:55 61° S 01:03:51 10° E
CZ-2D R/B 4.5 01:07:09 10° SW 01:07:09 10° SW 01:07:14 10° SW
ACS3 Solar Sail 1.7 01:02:58 51° NNE 01:04:45 89° ESE 01:11:03 10° S
Cosmos 1867 3.5 01:07:43 72° NNE 01:08:03 76° ENE 01:13:27 10° SSE
USA 229 DEB 3.7 01:08:44 10° SW 01:13:10 46° WSW 01:13:10 46° WSW
USA 229 3.6 01:08:58 10° SW 01:13:30 48° WSW 01:13:30 48° WSW
Meteor 2-5 Rocket 4.3 01:10:01 10° S 01:15:55 61° E 01:21:42 10° NNE
Delta 198 3.8 01:20:09 68° NNW 01:20:36 73° N 01:25:40 10° E
OAO 3 Rocket 4.1 01:24:39 35° NNE 01:24:54 35° NE 01:29:14 10° E
Meteor 2-21 4.3 01:21:26 10° S 01:27:40 79° W 01:31:09 27° N
ATLAS 3B R/B 2.8 01:28:08 10° SW 01:34:13 44° WNW 01:40:44 10° N
Atlas Centaur 2 4.1 01:41:03 23° NNW 01:41:03 23° NNW 01:45:32 10° NNE
Centaur AC-119 4.1 01:38:17 31° NNW 01:40:41 41° NNE 01:45:42 10° E
Cosmos 1328 4.1 01:37:33 10° SSW 01:40:18 43° SW 01:40:18 43° SW
H-2A R/B 3.3 01:43:02 23° WSW 01:43:02 23° WSW 01:45:46 10° SW
Cosmos 1934 Rocket 4.1 01:39:43 38° NW 01:41:38 52° W 01:47:33 10° S
Meteor 1-12 Rocket 4.3 01:39:38 36° NNW 01:41:56 62° W 01:47:43 10° S
PAYLOAD A 4.0 01:39:19 10° NNE 01:44:14 77° ESE 01:49:03 10° S
H-2A R/B 3.8 01:42:12 10° NNE 01:45:57 58° ESE 01:49:47 10° S
Cosmos 2056 Rocket 3.5 01:40:56 10° SSW 01:46:12 64° WNW 01:51:29 10° N
Meteor 2-16 Rocket 4.4 01:42:06 10° S 01:48:16 89° E 01:54:21 10° N
SL-08 RB Rocket 3.7 01:45:13 10° NNE 01:49:37 77° E 01:54:04 10° S
Cosmos 1703 Rocket 3.5 01:47:59 10° SSW 01:52:14 57° W 01:54:03 31° NNW
CZ-2C R/B 2.6 01:58:15 10° N 02:03:12 51° W 02:08:06 10° SSW
Cosmos 1371 Rocket 4.4 02:00:51 10° SSW 02:05:41 40° W 02:10:31 10° N
Cosmos 1939 Rocket 2.7 02:07:57 10° NNE 02:11:40 84° E 02:15:24 10° S
ATLAS CENTAUR R/B 2.2 02:11:39 19° WSW 02:11:43 19° WSW 02:13:55 10° SSW
OAO 2 Rocket 3.6 02:09:24 22° W 02:12:42 61° SSW 02:17:46 10° ESE
Centaur D-1AR AC-40 2.8 02:14:25 17° NNW 02:16:02 24° NNE 02:19:05 10° ENE
Cosmos 1844 4.4 02:13:10 21° WNW 02:16:09 35° WSW 02:21:15 10° S
Cosmos 2292 Rocket 3.1 02:15:27 10° SSW 02:18:18 40° W 02:21:06 12° NNW
SL-16 R/B 3.4 02:13:13 10° SSE 02:19:14 51° ENE 02:25:13 10° N
ARGOS 4.0 02:15:53 13° NNW 02:19:54 29° W 02:24:34 10° SW
CZ-4C R/B 4.0 02:14:39 17° WNW 02:20:33 35° WSW 02:27:50 10° S
Cosmos 1110 Rocket 4.0 02:17:06 10° SSW 02:22:21 87° WNW 02:27:35 10° NNE
ISS -3.3 02:22:27 16° NNW 02:25:00 59° NE 02:28:22 10° SE
GPS 2-12 Rocket1 3.6 02:22:54 19° WNW 02:25:33 37° N 02:29:34 10° ENE
Cosmos 1818 3.5 02:26:27 10° SSW 02:31:46 62° WNW 02:37:04 10° NNE
ASTEX 1 3.5 02:30:24 10° S 02:35:19 58° W 02:40:09 10° NNW
FengYun 1-2 T 4.3 02:30:36 10° N 02:36:10 61° WNW 02:41:49 10° SSW
Cosmos 1844 Rocket 4.2 02:34:17 12° WNW 02:37:43 20° WSW 02:41:47 10° SSW
SL-16 R/B 3.5 02:33:56 10° WSW 02:37:48 19° W 02:41:40 10° NW
IRS-1D 3.4 02:33:13 10° N 02:38:12 78° WNW 02:43:21 10° SSW
Cosmos 2100 Rocket 4.2 02:32:59 10° N 02:39:15 82° E 02:45:39 10° S
Cosmos 1459 Rocket 4.3 02:33:36 10° N 02:39:45 73° E 02:45:53 10° S
Aurora 2 Rocket 4.3 02:40:26 10° N 02:41:05 10° NNE 02:41:44 10° NE
Cosmos 1378 Rocket 4.3 02:39:09 10° S 02:43:28 56° E 02:47:40 10° NNE
Cosmos 1340 Rocket 2.7 02:41:11 10° NNW 02:44:47 54° W 02:48:27 10° S
Cosmos 2242 Rocket 3.5 02:40:34 10° S 02:45:00 77° W 02:49:22 10° N
Iridium 4 Rocket 4.4 02:40:59 10° NNE 02:45:15 47° E 02:49:58 10° SSE
Cosmos 2346 Rocket 4.5 02:39:21 10° S 02:45:37 70° W 02:51:46 10° N
Meteor 1-28 Rocket 3.3 02:43:43 10° SSE 02:47:03 64° E 02:50:20 10° N
Delta 128 3.7 02:43:27 10° WSW 02:48:39 82° NNW 02:53:15 10° ENE
Cosmos 1606 2.1 02:47:26 10° NNW 02:49:58 42° W 02:52:35 10° S
Meteosat 1 Rocket2 4.0 02:43:53 10° WNW 02:51:04 62° NNE 02:55:51 10° E
Cosmos 1452 Rocket 3.6 02:50:15 10° SSW 02:55:24 55° WNW 03:00:30 10° N
Fermi 4.0 02:51:40 10° WNW 02:55:31 55° NNE 02:59:21 10° E
